| time (UTC) | temp F | wind direction | speed MPH | gust MPH | rain 1hr in | rain 24hr in | rain mn in | humidity % | barometer mb |
| 20260906104545 | 54 | 0 | 0.0 | 1.0 | 0.08 | 0.84 | 0.67 | 96 | 1015.7 |
| 20260906103044 | 54 | 0 | 0.0 | 0.0 | 0.11 | 0.82 | 0.65 | 96 | 1015.7 |
| 20260906101542 | 54 | 0 | 0.0 | 1.0 | 0.17 | 0.77 | 0.60 | 96 | 1015.6 |
| 20260906100041 | 55 | 0 | 0.0 | 0.0 | 0.21 | 0.77 | 0.60 | 96 | 1015.6 |
| 20260906094545 | 55 | 0 | 0.0 | 0.0 | 0.34 | 0.75 | 0.58 | 96 | 1015.3 |
| 20260906093053 | 55 | 0 | 0.0 | 0.0 | 0.41 | 0.71 | 0.54 | 96 | 1015.3 |
| 20260906091541 | 56 | 0 | 0.0 | 2.0 | 0.30 | 0.58 | 0.42 | 96 | 1015.1 |
| 20260906090048 | 56 | 0 | 0.0 | 1.0 | 0.28 | 0.56 | 0.39 | 96 | 1015.0 |
| 20260906084551 | 56 | 0 | 0.0 | 0.0 | 0.12 | 0.40 | 0.23 | 96 | 1014.8 |
| 20260906083042 | 57 | 0 | 0.0 | 1.0 | 0.02 | 0.30 | 0.13 | 96 | 1014.8 |
| 20260906081540 | 57 | 0 | 0.0 | 0.0 | 0.01 | 0.29 | 0.12 | 96 | 1014.7 |
| 20260906080054 | 57 | 0 | 0.0 | 0.0 | 0.01 | 0.28 | 0.11 | 96 | 1014.7 |
| 20260906074548 | 57 | 0 | 0.0 | 0.0 | 0.02 | 0.28 | 0.11 | 96 | 1014.6 |
| 20260906073040 | 57 | 0 | 0.0 | 0.0 | 0.03 | 0.28 | 0.11 | 96 | 1014.7 |
| 20260906071540 | 57 | 0 | 0.0 | 0.0 | 0.07 | 0.28 | 0.11 | 96 | 1014.5 |
| 20260906070042 | 57 | 0 | 0.0 | 0.0 | 0.10 | 0.27 | 0.10 | 96 | 1014.5 |
| 20260906064539 | 57 | 0 | 0.0 | 0.0 | 0.09 | 0.26 | 0.09 | 96 | 1014.6 |
| 20260906063049 | 57 | 0 | 0.0 | 0.0 | 0.08 | 0.25 | 0.08 | 96 | 1014.6 |
| 20260906061543 | 57 | 0 | 0.0 | 0.0 | 0.04 | 0.21 | 0.04 | 96 | 1014.6 |
| 20260906060054 | 57 | 0 | 0.0 | 0.0 | 0.00 | 0.17 | 0.00 | 96 | 1014.5 |
| 20260906054548 | 57 | 0 | 0.0 | 0.0 | 0.00 | 0.17 | 0.00 | 96 | 1014.4 |
| 20260906053045 | 57 | 0 | 0.0 | 0.0 | 0.00 | 0.17 | 0.00 | 96 | 1014.5 |
| 20260906051545 | 57 | 0 | 0.0 | 0.0 | 0.00 | 0.17 | 0.00 | 96 | 1014.5 |
| 20260906050046 | 57 | 0 | 0.0 | 0.0 | 0.00 | 0.17 | 0.00 | 96 | 1014.6 |
| 20260906044541 | 58 | 0 | 0.0 | 0.0 | 0.00 | 0.17 | 0.00 | 96 | 1014.7 |
| 20260906043043 | 58 | 0 | 0.0 | 0.0 | 0.01 | 0.17 | 0.00 | 96 | 1014.7 |
| 20260906041547 | 58 | 0 | 0.0 | 0.0 | 0.01 | 0.17 | 0.00 | 96 | 1014.7 |
| 20260906040049 | 58 | 0 | 0.0 | 0.0 | 0.01 | 0.17 | 0.00 | 96 | 1014.6 |
| 20260906034542 | 58 | 0 | 0.0 | 0.0 | 0.02 | 0.17 | 0.17 | 96 | 1014.6 |
| 20260906033041 | 58 | 0 | 0.0 | 0.0 | 0.01 | 0.16 | 0.16 | 96 | 1014.5 |
| 20260906031541 | 58 | 0 | 0.0 | 2.0 | 0.02 | 0.16 | 0.16 | 96 | 1014.2 |
| 20260906030046 | 58 | 0 | 0.0 | 1.0 | 0.03 | 0.16 | 0.16 | 95 | 1014.2 |
| 20260906024541 | 58 | 0 | 0.0 | 0.0 | 0.02 | 0.15 | 0.15 | 95 | 1014.0 |
| 20260906023046 | 58 | 0 | 0.0 | 2.0 | 0.03 | 0.15 | 0.15 | 95 | 1014.0 |
| 20260906021545 | 58 | 0 | 0.0 | 1.0 | 0.06 | 0.14 | 0.14 | 94 | 1013.9 |
| 20260906020053 | 58 | 0 | 0.0 | 0.0 | 0.07 | 0.13 | 0.13 | 94 | 1014.0 |
| 20260906014546 | 58 | 0 | 0.0 | 0.0 | 0.09 | 0.13 | 0.13 | 94 | 1013.9 |
| 20260906013047 | 58 | 0 | 0.0 | 0.0 | 0.11 | 0.12 | 0.12 | 94 | 1014.0 |
| 20260906011555 | 59 | 0 | 0.0 | 2.0 | 0.07 | 0.07 | 0.07 | 93 | 1014.1 |
| 20260906010043 | 59 | 0 | 0.0 | 0.0 | 0.05 | 0.05 | 0.05 | 92 | 1013.9 |
| 20260906004544 | 59 | 0 | 0.0 | 0.0 | 0.04 | 0.04 | 0.04 | 91 | 1013.7 |
| 20260906003046 | 60 | 0 | 0.0 | 2.0 | 0.01 | 0.01 | 0.01 | 90 | 1013.7 |
| 20260906001543 | 61 | 0 | 0.0 | 3.0 | 0.00 | 0.00 | 0.00 | 87 | 1013.6 |
| 20260906000042 | 62 | 0 | 0.0 | 3.0 | 0.00 | 0.00 | 0.00 | 86 | 1013.5 |
| 20260905234541 | 63 | 0 | 0.0 | 1.0 | 0.00 | 0.00 | 0.00 | 87 | 1013.3 |
| 20260905233102 | 63 | 0 | 0.0 | 2.0 | 0.00 | 0.00 | 0.00 | 86 | 1013.1 |
| 20260905231551 | 64 | 325 | 0.0 | 2.0 | 0.00 | 0.00 | 0.00 | 85 | 1012.9 |
| 20260905230051 | 64 | 0 | 0.0 | 1.0 | 0.00 | 0.00 | 0.00 | 83 | 1012.8 |
| 20260905224605 | 65 | 0 | 0.0 | 0.0 | 0.00 | 0.00 | 0.00 | 82 | 1012.5 |
| 20260905223041 | 66 | 0 | 0.0 | 3.0 | 0.00 | 0.00 | 0.00 | 81 | 1012.3 |
| 20260905221542 | 66 | 0 | 0.0 | 2.0 | 0.00 | 0.00 | 0.00 | 81 | 1012.2 |
| 20260905220048 | 67 | 0 | 0.0 | 0.0 | 0.00 | 0.00 | 0.00 | 82 | 1012.2 |
| 20260905214545 | 67 | 0 | 0.0 | 0.0 | 0.00 | 0.00 | 0.00 | 81 | 1011.9 |
| 20260905213043 | 67 | 0 | 0.0 | 0.0 | 0.00 | 0.00 | 0.00 | 79 | 1011.8 |
| 20260905211543 | 67 | 0 | 0.0 | 0.0 | 0.00 | 0.00 | 0.00 | 78 | 1011.6 |
| 20260905210049 | 68 | 0 | 0.0 | 1.0 | 0.00 | 0.00 | 0.00 | 76 | 1011.6 |
| 20260905204544 | 69 | 0 | 0.0 | 1.0 | 0.00 | 0.00 | 0.00 | 76 | 1011.5 |
| 20260905203043 | 69 | 0 | 0.0 | 3.0 | 0.00 | 0.00 | 0.00 | 73 | 1011.5 |
| 20260905201542 | 70 | 217 | 0.0 | 3.0 | 0.00 | 0.00 | 0.00 | 71 | 1011.5 |
| 20260905200048 | 71 | 0 | 0.0 | 3.0 | 0.00 | 0.00 | 0.00 | 71 | 1011.5 |
| 20260905194541 | 71 | 0 | 0.0 | 3.0 | 0.00 | 0.00 | 0.00 | 74 | 1011.4 |
| 20260905193046 | 69 | 338 | 0.0 | 2.0 | 0.00 | 0.00 | 0.00 | 75 | 1011.4 |
| 20260905191548 | 69 | 0 | 0.0 | 4.0 | 0.00 | 0.00 | 0.00 | 75 | 1011.5 |
| 20260905190059 | 69 | 0 | 0.0 | 2.0 | 0.00 | 0.00 | 0.00 | 73 | 1011.6 |
| 20260905184558 | 69 | 340 | 0.0 | 4.0 | 0.00 | 0.00 | 0.00 | 75 | 1011.6 |
| 20260905183043 | 68 | 6 | 0.0 | 2.0 | 0.00 | 0.00 | 0.00 | 75 | 1011.5 |
| 20260905181542 | 69 | 0 | 0.0 | 3.0 | 0.00 | 0.00 | 0.00 | 74 | 1011.5 |
| 20260905180050 | 69 | 0 | 0.0 | 3.0 | 0.00 | 0.00 | 0.00 | 74 | 1011.6 |
| 20260905174558 | 69 | 0 | 0.0 | 2.0 | 0.00 | 0.00 | 0.00 | 74 | 1011.6 |
| 20260905173041 | 69 | 0 | 0.0 | 3.0 | 0.00 | 0.00 | 0.00 | 74 | 1011.6 |
| 20260905171540 | 69 | 353 | 0.0 | 3.0 | 0.00 | 0.00 | 0.00 | 74 | 1011.3 |
| 20260905170044 | 69 | 0 | 0.0 | 5.0 | 0.00 | 0.00 | 0.00 | 75 | 1011.4 |
| 20260905164544 | 68 | 348 | 0.0 | 3.0 | 0.00 | 0.00 | 0.00 | 79 | 1011.4 |
| 20260905163050 | 69 | 0 | 0.0 | 3.0 | 0.00 | 0.00 | 0.00 | 75 | 1011.4 |
| 20260905161544 | 68 | 0 | 0.0 | 3.0 | 0.00 | 0.00 | 0.00 | 80 | 1011.5 |
| 20260905160044 | 67 | 126 | 0.0 | 2.0 | 0.00 | 0.00 | 0.00 | 82 | 1011.5 |
| 20260905154552 | 67 | 113 | 0.0 | 6.0 | 0.00 | 0.00 | 0.00 | 79 | 1011.5 |
| 20260905153046 | 68 | 311 | 1.0 | 3.0 | 0.00 | 0.00 | 0.00 | 76 | 1011.5 |
| 20260905151544 | 67 | 0 | 0.0 | 3.0 | 0.00 | 0.00 | 0.00 | 80 | 1011.5 |
| 20260905150043 | 67 | 17 | 1.0 | 6.0 | 0.00 | 0.00 | 0.00 | 80 | 1011.5 |
| 20260905144546 | 65 | 0 | 0.0 | 2.0 | 0.00 | 0.00 | 0.00 | 84 | 1011.4 |
| 20260905143043 | 65 | 0 | 0.0 | 5.0 | 0.00 | 0.00 | 0.00 | 86 | 1011.6 |
| 20260905141546 | 63 | 0 | 0.0 | 3.0 | 0.00 | 0.00 | 0.00 | 88 | 1011.4 |
| 20260905140047 | 63 | 0 | 0.0 | 4.0 | 0.00 | 0.00 | 0.00 | 90 | 1011.6 |
| 20260905134541 | 62 | 0 | 0.0 | 2.0 | 0.00 | 0.00 | 0.00 | 91 | 1011.5 |
| 20260905133042 | 61 | 92 | 0.0 | 2.0 | 0.00 | 0.00 | 0.00 | 94 | 1011.2 |
| 20260905131559 | 60 | 0 | 0.0 | 3.0 | 0.00 | 0.00 | 0.00 | 96 | 1011.2 |
| 20260905130045 | 59 | 0 | 0.0 | 0.0 | 0.00 | 0.00 | 0.00 | 97 | 1011.3 |
| 20260905124548 | 59 | 0 | 0.0 | 1.0 | 0.00 | 0.00 | 0.00 | 97 | 1011.4 |
| 20260905123053 | 58 | 0 | 0.0 | 0.0 | 0.00 | 0.00 | 0.00 | 97 | 1011.4 |
| 20260905121545 | 57 | 0 | 0.0 | 0.0 | 0.00 | 0.00 | 0.00 | 97 | 1011.2 |
| 20260905120043 | 56 | 0 | 0.0 | 0.0 | 0.00 | 0.00 | 0.00 | 97 | 1011.4 |
| 20260905114545 | 56 | 0 | 0.0 | 0.0 | 0.00 | 0.00 | 0.00 | 97 | 1011.4 |
| 20260905113044 | 56 | 0 | 0.0 | 0.0 | 0.00 | 0.00 | 0.00 | 97 | 1011.1 |
| 20260905111551 | 55 | 0 | 0.0 | 0.0 | 0.00 | 0.00 | 0.00 | 97 | 1010.9 |
| 20260905110041 | 55 | 0 | 0.0 | 0.0 | 0.00 | 0.00 | 0.00 | 97 | 1010.8 |